User: anonymous   Login
Location: Newark
(40.3500°N, 15.2333°E)
Time: 14:19:12
(UTC+00:00)
Language:

NO-84 - Orbit

View from above orbital plane
View from above orbital plane
View from above satellite
View from above satellite

Ground track
Ground track

The orbit data is extracted from the following two-line orbital elements,

1 40654U 15025D   20044.56036829  .00011910  00000-0  15183-3 0  8533
2 40654  54.9888 155.3372 0122259 223.0924 136.0471 15.51381612149629
Epoch (UTC): 13 February 2020 13:26:55
Eccentricity: 0.0122259
inclination: 54.9888°
perigee height: 329 km
apogee height: 496 km
right ascension of ascending node: 155.3372°
argument of perigee: 223.0924°
revolutions per day: 15.51381612
mean anomaly at epoch: 136.0471°
orbit number at epoch: 14962

The dashed part of the orbit path shows where the satellite is in the earth's shadow,  

DLR